Regional Weather Roundup
Issued by NWS

Home | Current Version | Previous Version | Graphics & Text | Print | Product List | Glossary On
Versions: 1 2 3 4 5 6 7 8 9 10 11 12 13 14 15 16 17 18 19 20 21 22 23 24 25 26 27 28 29 30 31 32 33 34 35 36 37 38 39 40 41 42 43 44 45 46 47 48 49 50
000
ASUS43 KFSD 200002
RWRSD

WEATHER ROUNDUP FOR SOUTH DAKOTA
NATIONAL WEATHER SERVICE SIOUX FALLS SD
700 PM CDT TUE SEP 19 2017

NOTE: "FAIR" INDICATES FEW OR NO CLOUDS BELOW 12,000 FEET WITH NO
SIGNIFICANT WEATHER AND/OR OBSTRUCTIONS TO VISIBILITY.


SDZ001>005-009-010-012>017-200100-
NORTHWEST AND NORTH CENTRAL SOUTH DAKOTA

CITY           SKY/WX    TMP DP  RH WIND       PRES   REMARKS
BUFFALO          N/A     50  46  86 W14       29.62R
FAITH            N/A     55  54  96 NW20      29.63R
MOBRIDGE       CLOUDY    67  54  63 NW23G31   29.46R
$$

SDZ012>016-024>037-041>051-057-063-072>074-200100-
SOUTHWEST AND SOUTH CENTRAL SOUTH DAKOTA

CITY           SKY/WX    TMP DP  RH WIND       PRES   REMARKS
RAPID CTY ARPT CLOUDY    52  48  87 N15       29.68R
PIERRE         CLOUDY    72  50  45 NW29G38   29.51R
CUSTER         LGT RAIN  47  37  68 SW8G28    29.73R
ELLSWORTH AFB  CLOUDY    53  50  91 N17       29.66
PHILIP         PTCLDY    68  49  50 NW23G30   29.58R
PINE RIDGE     LGT RAIN  60  48  64 NW8       29.68R
SPEARFISH      FAIR      46  46 100 NW13      29.70F
WINNER         FAIR      81  67  62 SW5       29.47S
$$

SDZ004>011-016>023-039-040-200100-
NORTHEAST SOUTH DAKOTA

CITY           SKY/WX    TMP DP  RH WIND       PRES   REMARKS
ABERDEEN       MOCLDY    79  68  69 SE17G28   29.39F THUNDER
WATERTOWN      CLOUDY    74  68  81 SE21G31   29.52R
BROOKINGS      CLOUDY    75  68  78 S22G30    29.54R
SISSETON         N/A     76  68  76 S17G23    29.48R
$$

SDZ017-020-022-023-036>040-048>070-200100-
SOUTHEAST SOUTH DAKOTA

CITY           SKY/WX    TMP DP  RH WIND       PRES   REMARKS
SIOUX FALLS    CLOUDY    81  69  67 S16G24    29.53R
HURON          MOCLDY    81  68  64 SE14G22   29.44F
CHAMBERLAIN    CLEAR     81  68  64 S7        29.45S
MITCHELL       CLOUDY    83  68  60 S20G26    29.46S
YANKTON        CLOUDY    82  69  64 SE16G23   29.49S
$$

ABBREVIATIONS USED IN REMARKS
   TC - TEMPERATURE IN CELSIUS
  WCI - WIND CHILL INDEX
   HX - HEAT INDEX
  VSB - VISIBILITY




USA.gov is the U.S. government's official web portal to all federal, state and local government web resources and services.